Location: Unspecified
(50.7693°N, 0.0000°E)
Time: 20:34:51
(UTC+00:00)

Transit 4A - Pass Details

Date: 30 June 2019
Orbit: 863 x 981 km, 66.8° (Epoch: 22 August)

Event Time Altitude Azimuth Distance (km) Brightness Sun altitude
Rises 04:58:16 0° 163° (SSE) 3,619 10.9 8.1°
Reaches altitude 10° 05:01:34 10° 146° (SE) 2,696 10.5 8.6°
Maximum altitude 05:05:44 19° 104° (ESE) 2,150 10.8 9.2°
Drops below altitude 10° 05:09:58 10° 62° (ENE) 2,737 14.2 9.8°
Sets 05:13:19 0° 46° (NE) 3,694 12.6 10.3°
